South St. Paul, MN

5:15 AM CST on November 21, 2017 (GMT -0600)
South Saint Paul Municipal-Fleming

Weather History for KSGS - September, 2012

Change the Weather History Date:

Thursday, September 13, 2012

  Actual Average (KSTP) Record (KSTP)
Temperature  
Mean Temperature 64 °F -  
Max Temperature 74 °F 73 °F 93 °F (1998)
Min Temperature 54 °F 52 °F 37 °F (2014)
Degree Days  
Heating Degree Days 1    
Growing Degree Days 14 (Base 50)    
Moisture  
Dew Point 42 °F    
Average Humidity 55    
Maximum Humidity 91    
Minimum Humidity 16    
Precipitation  
Precipitation 0.00 in - - ()
Sea Level Pressure  
Sea Level Pressure 30.29 in    
Wind  
Wind Speed 3 mph (WNW)    
Max Wind Speed 14 mph    
Max Gust Speed 20 mph    
Visibility 10 miles    
Events      
Averages and records for this station are not official NWS values.
T = Trace of Precipitation, MM = Missing Value Source: NWS Daily Summary

Daily Weather History Graph

Daily Weather History Graph

Search for Another Location

Airport or City:

Trip Planner

Search our weather history database for the weather conditions in past years. The results will help you decide how hot, cold, wet, or windy it might be!

Date:

Astronomy

Sep. 13, 2012 Rise Set
Actual Time 6:49 AM CDT 7:25 PM CDT
Civil Twilight 6:19 AM CDT 7:55 PM CDT
Nautical Twilight 5:44 AM CDT 8:30 PM CDT
Astronomical Twilight 5:08 AM CDT 9:06 PM CDT
Moon 4:04 AM CDT (9/13) 5:52 PM CDT (9/13)
Length of Visible Light 13h 35m
Length of Day
12h 36m
Waning Crescent, 7% of the Moon is Illuminated
Sep 13
Waning Crescent
Sep 15
New
Sep 22
First Quarter
Sep 29
Full
Oct 8
Last Quarter

Hourly Weather History & Observations

Time (CDT) Temp. Dew Point Humidity Pressure Visibility Wind Dir Wind Speed Gust Speed Precip Events Conditions
12:12 AM 55.9 °F 51.1 °F 84% 30.24 in 10.0 mi Calm Calm - N/A   Clear
12:32 AM 55.6 °F 51.4 °F 86% 30.25 in 10.0 mi South 3.5 mph - N/A   Clear
12:52 AM 55.4 °F 51.4 °F 87% 30.26 in 10.0 mi South 3.5 mph - N/A   Clear
1:12 AM 55.6 °F 51.3 °F 85% 30.27 in 10.0 mi South 3.5 mph - N/A   Clear
1:32 AM 55.6 °F 51.3 °F 85% 30.28 in 10.0 mi Calm Calm - N/A   Clear
1:52 AM 55.8 °F 51.4 °F 85% 30.29 in 10.0 mi Calm Calm - N/A   Clear
2:12 AM 55.8 °F 51.1 °F 84% 30.28 in 10.0 mi Calm Calm - N/A   Clear
2:32 AM 55.8 °F 51.1 °F 84% 30.28 in 10.0 mi Calm Calm - N/A   Clear
2:52 AM 55.2 °F 51.1 °F 86% 30.28 in 10.0 mi Calm Calm - N/A   Clear
3:12 AM 55.0 °F 51.3 °F 87% 30.27 in 10.0 mi Calm Calm - N/A   Clear
3:32 AM 54.9 °F 51.4 °F 88% 30.27 in 10.0 mi Calm Calm - N/A   Clear
3:52 AM 54.7 °F 51.3 °F 88% 30.27 in 10.0 mi SSE 3.5 mph - N/A   Clear
4:12 AM 54.7 °F 51.4 °F 89% 30.27 in 10.0 mi Calm Calm - N/A   Clear
4:32 AM 54.5 °F 51.8 °F 91% 30.27 in 10.0 mi Calm Calm - N/A   Clear
4:52 AM 54.5 °F 51.4 °F 89% 30.27 in 10.0 mi Calm Calm - N/A   Clear
5:12 AM 54.5 °F 51.6 °F 90% 30.27 in 10.0 mi Calm Calm - N/A   Clear
5:32 AM 54.5 °F 51.1 °F 88% 30.28 in 10.0 mi Calm Calm - N/A   Clear
5:52 AM 54.5 °F 51.3 °F 89% 30.28 in 10.0 mi Calm Calm - N/A   Clear
6:12 AM 54.3 °F 50.9 °F 88% 30.28 in 10.0 mi Calm Calm - N/A   Clear
6:52 AM 54.0 °F 51.1 °F 90% 30.30 in 10.0 mi Calm Calm - N/A   Clear
7:12 AM 54.0 °F 50.9 °F 89% 30.30 in 7.0 mi Calm Calm - N/A   Clear
7:32 AM 54.0 °F 50.9 °F 89% 30.30 in 10.0 mi Calm Calm - N/A   Clear
7:52 AM 54.1 °F 51.1 °F 89% 30.31 in 10.0 mi Calm Calm - N/A   Clear
8:12 AM 54.5 °F 51.1 °F 88% 30.31 in 10.0 mi Calm Calm - N/A   Clear
8:32 AM 55.2 °F 51.8 °F 88% 30.32 in 10.0 mi West 3.5 mph - N/A   Clear
8:52 AM 56.7 °F 51.4 °F 83% 30.32 in 10.0 mi West 5.8 mph - N/A   Clear
9:12 AM 58.3 °F 51.4 °F 78% 30.33 in 10.0 mi West 5.8 mph - N/A   Clear
9:32 AM 59.9 °F 49.8 °F 69% 30.33 in 10.0 mi West 4.6 mph - N/A   Clear
9:52 AM 60.4 °F 48.2 °F 64% 30.33 in 10.0 mi NW 5.8 mph - N/A   Clear
10:12 AM 60.8 °F 48.2 °F 63% 30.34 in 10.0 mi West 4.6 mph - N/A   Clear
10:32 AM 61.7 °F 47.5 °F 60% 30.34 in 10.0 mi WNW 4.6 mph - N/A   Clear
10:52 AM 63.1 °F 46.8 °F 55% 30.34 in 10.0 mi West 3.5 mph - N/A   Clear
11:12 AM 64.6 °F 45.1 °F 49% 30.34 in 10.0 mi West 5.8 mph - N/A   Clear
11:32 AM 65.1 °F 44.8 °F 48% 30.34 in 10.0 mi NW 3.5 mph - N/A   Clear
11:52 AM 67.3 °F 41.4 °F 39% 30.33 in 10.0 mi Calm Calm - N/A   Clear
12:12 PM 69.6 °F 39.9 °F 34% 30.33 in 10.0 mi NW 4.6 mph - N/A   Clear
12:32 PM 70.3 °F 35.8 °F 28% 30.32 in 10.0 mi WNW 6.9 mph - N/A   Clear
12:52 PM 70.9 °F 32.7 °F 24% 30.32 in 10.0 mi West 4.6 mph - N/A   Clear
1:12 PM 70.3 °F 33.6 °F 26% 30.31 in 10.0 mi WNW 3.5 mph - N/A   Clear
1:32 PM 71.6 °F 35.2 °F 26% 30.30 in 10.0 mi SSW 4.6 mph - N/A   Clear
1:52 PM 72.9 °F 27.3 °F 18% 30.30 in 10.0 mi West 9.2 mph - N/A   Clear
2:12 PM 72.5 °F 28.8 °F 20% 30.29 in 10.0 mi West 12.7 mph 16.1 mph N/A   Clear
2:32 PM 73.0 °F 28.8 °F 19% 30.29 in 10.0 mi NW 6.9 mph 17.3 mph N/A   Clear
2:52 PM 73.6 °F 29.5 °F 20% 30.28 in 10.0 mi NW 5.8 mph 18.4 mph N/A   Clear
3:12 PM 73.6 °F 28.4 °F 19% 30.28 in 10.0 mi WSW 8.1 mph - N/A   Clear
3:32 PM 74.3 °F 27.0 °F 17% 30.27 in 10.0 mi WNW 11.5 mph 17.3 mph N/A   Clear
3:52 PM 74.3 °F 26.8 °F 17% 30.27 in 10.0 mi West 12.7 mph 16.1 mph N/A   Clear
4:12 PM 74.3 °F 25.9 °F 17% 30.27 in 10.0 mi NW 9.2 mph - N/A   Clear
4:32 PM 74.3 °F 25.9 °F 17% 30.27 in 10.0 mi WNW 11.5 mph 18.4 mph N/A   Clear
4:52 PM 74.3 °F 26.6 °F 17% 30.26 in 10.0 mi NW 13.8 mph 19.6 mph N/A   Clear
5:12 PM 73.9 °F 25.7 °F 17% 30.26 in 10.0 mi WNW 12.7 mph - N/A   Clear
5:32 PM 73.6 °F 26.1 °F 17% 30.26 in 10.0 mi WNW 6.9 mph - N/A   Clear
5:52 PM 73.6 °F 24.6 °F 16% 30.26 in 10.0 mi West 11.5 mph 18.4 mph N/A   Clear
6:12 PM 73.0 °F 24.4 °F 16% 30.26 in 10.0 mi NW 11.5 mph - N/A   Clear
6:32 PM 72.5 °F 25.9 °F 18% 30.26 in 10.0 mi NW 5.8 mph - N/A   Clear
6:52 PM 71.4 °F 26.2 °F 19% 30.26 in 10.0 mi WNW 4.6 mph - N/A   Clear
7:12 PM 70.3 °F 27.3 °F 20% 30.26 in 10.0 mi WNW 3.5 mph - N/A   Clear
7:32 PM 67.8 °F 29.8 °F 24% 30.26 in 10.0 mi Calm Calm - N/A   Clear
7:52 PM 64.4 °F 37.6 °F 37% 30.26 in 10.0 mi Calm Calm - N/A   Clear
8:12 PM 62.6 °F 37.9 °F 40% 30.27 in 10.0 mi Calm Calm - N/A   Clear
8:32 PM 61.2 °F 38.7 °F 43% 30.28 in 10.0 mi Calm Calm - N/A   Clear
8:52 PM 59.2 °F 41.2 °F 51% 30.28 in 10.0 mi Calm Calm - N/A   Clear
9:12 PM 58.8 °F 41.7 °F 53% 30.28 in 10.0 mi Calm Calm - N/A   Clear
9:32 PM 57.7 °F 42.4 °F 57% 30.28 in 10.0 mi Calm Calm - N/A   Clear
9:52 PM 57.6 °F 41.9 °F 56% 30.29 in 10.0 mi Calm Calm - N/A   Clear
10:12 PM 57.6 °F 42.1 °F 56% 30.29 in 10.0 mi Calm Calm - N/A   Scattered Clouds
10:32 PM 58.1 °F 42.8 °F 57% 30.29 in 10.0 mi Calm Calm - N/A   Scattered Clouds
10:52 PM 58.6 °F 41.2 °F 52% 30.29 in 10.0 mi Calm Calm - N/A   Mostly Cloudy
11:12 PM 59.2 °F 43.3 °F 56% 30.29 in 10.0 mi Calm Calm - N/A   Mostly Cloudy
11:32 PM 58.8 °F 42.3 °F 54% 30.28 in 10.0 mi Calm Calm - N/A   Scattered Clouds
11:52 PM 58.6 °F 40.3 °F 51% 30.27 in 10.0 mi Calm Calm - N/A   Scattered Clouds